Home > Weather > Reutte > Past weeks

Flag for Austria Past Weather in Reutte, Tyrol, Austria — Yesterday and Last 2 Weeks

Now
73 °F

Mild.


Feels Like: 76 °F
Forecast: 59 / 76 °F
Wind: 1 mph from Northeast

Location: Landeck

Current Time: Jul 25, 2016 at 4:11:50 PM

Latest Report: Jul 25, 2016 at 3:00 PM


Visibility: N/A

Pressure: 30.00 "Hg (27.18 "Hg at 856m altitude)

Humidity: 66%

Dew Point: 61 °F

Location of ReutteLocation

Past Weather in Reutte — Graph

°F

Reutte Temperature Yesterday

Maximum temperature yesterday: 77 °F (at 3:00 PM)
Minimum temperature yesterday: 58 °F (at 7:00 AM)
Average temperature yesterday: 66 °F

High & Low Weather Summary for the Past Weeks

 TemperatureHumidityPressure
High89 °F (Jul 20, 4:00 PM)94% (Jul 13, 12:00 AM)30.40 "Hg (Jul 13, 12:00 AM)
Low44 °F (Jul 16, 6:00 AM)20% (Jul 20, 4:00 PM)29.75 "Hg (Jul 10, 5:00 PM)
Average64 °F71%30.07 "Hg
* Reported Jul 10 3:00 PM — Jul 25 3:00 PM, Reutte, Weather by CustomWeather, © 2016

Note: Actual official high and low records may vary slightly from our data, if they occured in-between our weather recording intervals... More about our weather records

Advertising

Reutte Weather History for the Previous 24 Hours

Scroll right to see more
 ConditionsComfort  
Time TempWeatherWind HumidityBarometerVisibility
3:00 PM
Mon, Jul 25
73 °FMild.1 mph66%30.00 "HgN/A
2:00 PM72 °FMild.1 mph68%30.00 "HgN/A
1:00 PM73 °FMild.1 mph68%29.99 "HgN/A
12:00 PM75 °FMild.2 mph62%30.00 "HgN/A
11:00 AM71 °FMild.1 mph71%30.03 "HgN/A
10:00 AM67 °FMild.1 mph78%30.06 "HgN/A
9:00 AM65 °FMild.No wind81%30.08 "HgN/A
8:00 AM64 °FMild.1 mph85%30.09 "HgN/A
7:00 AM62 °FCool.2 mph90%30.10 "HgN/A
6:00 AM61 °FCool.1 mph90%30.10 "HgN/A
5:00 AM61 °FCool.No wind92%30.10 "HgN/A
4:00 AM62 °FCool.1 mph92%30.10 "HgN/A
3:00 AM62 °FCool.No wind91%30.11 "HgN/A
2:00 AM62 °FPassing clouds.14 mph92%30.11 "Hg15 mi
1:00 AM62 °FMild.1 mph92%30.12 "HgN/A
12:00 AM63 °FMild.1 mph91%30.12 "HgN/A
11:00 PM
Sun, Jul 24
63 °FFog.1 mph90%30.11 "HgN/A
10:00 PM65 °FMild.1 mph81%30.10 "HgN/A
9:00 PM65 °FMild.3 mph86%30.07 "HgN/A
8:00 PM67 °FMild.No wind79%30.03 "HgN/A
7:00 PM73 °FMild.1 mph55%29.98 "HgN/A
6:00 PM74 °FMild.2 mph59%29.95 "HgN/A
5:00 PM74 °FMild.1 mph63%29.92 "HgN/A
4:00 PMN/APassing clouds.No windN/AN/A2 mi
Weather by CustomWeather, © 2016

See weather overviewHow to use our weather pages